Home   Weather   San Angelo   Past weeks

Flag for USA Past Weather in San Angelo, Texas, USA — Yesterday and Last 2 Weeks

Now
61 °F

More clouds than sun.


Feels Like: 61 °F
Forecast: 59 / 64 °F
Wind: 10 mph from Northeast

Location: Mathis Field

Current Time: Sep 26, 2016 at 9:05:34 AM

Latest Report: Sep 26, 2016 at 7:51 AM


Visibility: 10 mi

Pressure: 30.18 "Hg (28.24 "Hg at 561m altitude)

Humidity: 87%

Dew Point: 57 °F

Location of San AngeloLocation

Past Weather in San Angelo — Graph

°F

San Angelo Temperature Yesterday

Maximum temperature yesterday: 71 °F (at 12:59 AM)
Minimum temperature yesterday: 64 °F (at 9:51 PM)
Average temperature yesterday: 68 °F

High & Low Weather Summary for the Past Weeks

 TemperatureHumidityPressure
High99 °F (Sep 19, 3:51 PM)97% (Sep 11, 7:51 AM)30.21 "Hg (Sep 11, 7:51 AM)
Low61 °F (Sep 11, 7:51 AM)26% (Sep 20, 3:51 PM)29.78 "Hg (Sep 24, 5:51 PM)
Average79 °F67%29.96 "Hg
* Reported Sep 11 7:51 AM — Sep 26 7:51 AM, San Angelo, Weather by CustomWeather, © 2016

Note: Actual official high and low records may vary slightly from our data, if they occured in-between our weather recording intervals... More about our weather records

Advertising

San Angelo Weather History for the Previous 24 Hours

Scroll right to see more
 ConditionsComfort  
Time TempWeatherWind HumidityBarometerVisibility
7:51 AM
Mon, Sep 26
61 °FMore clouds than sun.10 mph87%30.18 "Hg10 mi
6:51 AM62 °FOvercast.13 mph86%30.16 "Hg10 mi
5:51 AM62 °FLight rain. Overcast.13 mph90%30.14 "Hg9 mi
4:51 AM62 °FLow clouds.10 mph90%30.13 "Hg10 mi
3:51 AM63 °FLow clouds.12 mph90%30.12 "Hg10 mi
2:51 AM64 °FLow clouds.10 mph94%30.12 "Hg10 mi
1:51 AM65 °FLow clouds.13 mph91%30.11 "Hg10 mi
1:01 AM65 °FRain. Fog.8 mph94%30.17 "Hg2 mi
11:51 PM
Sun, Sep 25
65 °FLow clouds.6 mph91%30.13 "Hg10 mi
10:51 PM65 °FLow clouds.10 mph87%30.12 "Hg10 mi
9:51 PM64 °FLow clouds.14 mph90%30.12 "Hg10 mi
8:51 PM66 °FMostly cloudy.15 mph90%30.09 "Hg10 mi
7:51 PM70 °FOvercast.12 mph87%30.05 "Hg10 mi
6:51 PM70 °FCloudy.12 mph90%30.04 "Hg10 mi
5:51 PM70 °FCloudy.8 mph90%30.02 "Hg10 mi
4:59 PM70 °FLow clouds.14 mph87%30.06 "Hg10 mi
4:02 PM69 °FLight rain. Partly sunny.9 mph90%30.06 "Hg10 mi
2:51 PM69 °FLight rain. Broken clouds.10 mph90%30.01 "Hg10 mi
1:51 PM68 °FRain. Fog.3 mph93%30.07 "Hg4 mi
12:51 PM69 °FRain. Fog.3 mph90%30.07 "Hg3 mi
11:51 AM68 °FRain. Fog.6 mph93%30.07 "Hg4 mi
10:51 AM68 °FOvercast.9 mph90%30.01 "Hg10 mi
10:01 AM68 °FScattered clouds.12 mph90%30.04 "Hg10 mi
9:51 AM68 °FPartly sunny.12 mph90%29.98 "Hg10 mi
Weather by CustomWeather, © 2016

See weather overviewHow to use our weather pages